Location: Jacksonville
(30.3320°N, 81.6560°W)
Time: 12:01:40
(UTC-05:00)

Hubble Space Telescope - Visible Passes

Search period start: 02 December 2020 00:00
Search period end: 12 December 2020 00:00
Orbit: 536 x 540 km, 28.5° (Epoch: 01 December)

Date Brightness Start Highest point End Pass type
(mag) Time Alt. Az. Time Alt. Az. Time Alt. Az.
02 Dec 2.2 17:55:11 10° SW 17:58:46 29° SSE 18:02:21 10° E visible
02 Dec 2.2 19:35:38 10° WSW 19:38:14 36° WSW 19:38:14 36° WSW visible
03 Dec 1.5 19:24:49 10° WSW 19:28:04 50° SW 19:28:04 50° SW visible
04 Dec 0.9 19:14:01 10° W 19:17:55 66° SSW 19:17:55 66° SSW visible
05 Dec 0.8 19:03:13 10° W 19:07:19 69° S 19:07:47 62° SE visible
06 Dec 0.9 18:52:26 10° W 18:56:32 68° S 18:57:41 43° ESE visible
07 Dec 1.0 18:41:39 10° W 18:45:44 65° S 18:47:38 29° ESE visible
08 Dec 1.1 18:30:52 10° W 18:34:55 60° S 18:37:39 20° ESE visible
08 Dec 3.8 20:12:18 10° W 20:13:00 14° WSW 20:13:00 14° WSW visible
09 Dec 1.3 18:20:05 10° W 18:24:07 54° S 18:27:46 12° ESE visible
09 Dec 3.5 20:01:41 10° WSW 20:03:07 17° WSW 20:03:07 17° WSW visible
10 Dec 1.6 18:09:19 10° W 18:13:18 48° SSW 18:17:16 10° ESE visible
10 Dec 3.2 19:51:11 10° WSW 19:53:22 18° SW 19:53:22 18° SW visible
11 Dec 1.9 17:58:34 10° W 18:02:28 42° SSW 18:06:22 10° ESE visible
11 Dec 3.3 19:40:49 10° WSW 19:43:13 15° SSW 19:43:46 15° SSW visible
